GW5686 Weather Reports


time (UTC)temp
C
wind
direction
speed
KPH
gust
KPH
rain 1hr
cm
rain 24hr
cm
rain mn
cm
humidity
%
barometer
mb
20260504231710 11 158 4.8 4.8 0.00 0.00 0.00 70 1002.7
20260504231207 11 202 6.4 6.4 0.00 0.00 0.00 69 1002.5
20260504230703 11 143 1.6 4.8 0.00 0.00 0.00 69 1002.6
20260504230202 11 242 4.8 6.4 0.00 0.00 0.00 68 1002.5
20260504225700 11 218 3.2 6.4 0.00 0.00 0.00 67 1002.5
20260504225155 12 209 3.2 6.4 0.00 0.00 0.00 67 1002.2
20260504224653 12 195 1.6 1.6 0.00 0.00 0.00 67 1002.3
20260504224149 12 165 1.6 3.2 0.00 0.00 0.00 66 1002.1
20260504223647 12 179 4.8 6.4 0.00 0.00 0.00 65 1002.0
20260504223142 12 202 3.2 6.4 0.00 0.00 0.00 65 1001.7
20260504222639 12 136 3.2 6.4 0.00 0.00 0.00 67 1001.9
20260504222136 12 115 1.6 6.4 0.00 0.00 0.00 66 1001.6
20260504221634 13 76 6.4 6.4 0.00 0.00 0.00 65 1001.8
20260504221131 13 238 1.6 6.4 0.00 0.00 0.00 65 1001.5
20260504220627 13 166 3.2 4.8 0.00 0.00 0.00 65 1001.6
20260504220125 13 151 1.6 3.2 0.00 0.00 0.00 66 1001.8
20260504215620 13 114 4.8 9.7 0.00 0.00 0.00 66 1001.6
20260504215118 12 148 6.4 6.4 0.00 0.00 0.00 68 1001.5
20260504214614 13 180 6.4 9.7 0.00 0.00 0.00 67 1001.6
20260504214110 13 213 6.4 9.7 0.00 0.00 0.00 66 1001.5
20260504213607 15 119 11.3 14.5 0.00 0.00 0.00 61 1001.3
20260504213104 15 255 6.4 11.3 0.00 0.00 0.00 58 1001.5
20260504212600 16 179 1.6 6.4 0.00 0.00 0.00 55 1001.1
20260504212057 16 335 1.6 12.9 0.00 0.00 0.00 54 1001.2
20260504211554 16 44 4.8 4.8 0.00 0.00 0.00 55 1001.3
20260504211051 16 215 9.7 14.5 0.00 0.00 0.00 52 1001.5
20260504210548 16 341 1.6 4.8 0.00 0.00 0.00 54 1001.1
20260504210045 16 61 1.6 4.8 0.00 0.00 0.00 54 1001.2
20260504205543 16 250 6.4 14.5 0.00 0.00 0.00 54 1001.2
20260504205040 16 255 1.6 12.9 0.00 0.00 0.00 54 1001.1
20260504204538 16 319 3.2 12.9 0.00 0.00 0.00 53 1001.1
20260504204037 16 307 6.4 12.9 0.00 0.00 0.00 54 1001.0
20260504203534 16 38 4.8 11.3 0.00 0.00 0.00 54 1001.4
20260504203032 16 74 1.6 4.8 0.00 0.00 0.00 54 1001.3
20260504202527 16 275 6.4 9.7 0.00 0.00 0.00 54 1001.2
20260504202024 16 11 3.2 4.8 0.00 0.00 0.00 54 1001.2
20260504201521 16 309 3.2 12.9 0.00 0.00 0.00 53 1001.3
20260504201019 15 218 3.2 17.7 0.00 0.00 0.00 55 1001.3
20260504200515 16 108 3.2 6.4 0.00 0.00 0.00 56 1001.4
20260504200012 15 284 3.2 9.7 0.00 0.00 0.00 58 1001.5
20260504195508 15 222 11.3 14.5 0.00 0.00 0.00 58 1001.1
20260504195005 15 14 4.8 12.9 0.00 0.00 0.00 57 1001.5
20260504194501 15 310 1.6 6.4 0.00 0.00 0.00 59 1001.5
20260504193957 15 349 6.4 11.3 0.00 0.00 0.00 59 1001.3
20260504193454 15 138 4.8 14.5 0.00 0.00 0.00 60 1001.3
20260504192953 14 259 3.2 9.7 0.00 0.00 0.00 61 1001.5
20260504192449 13 149 4.8 6.4 0.00 0.00 0.00 63 1001.7
20260504191949 12 144 3.2 6.4 0.00 0.00 0.00 65 1001.4
20260504191446 12 184 4.8 9.7 0.00 0.00 0.00 65 1001.6
20260504190941 12 124 1.6 11.3 0.00 0.00 0.00 67 1001.7
20260504190437 12 109 3.2 4.8 0.00 0.00 0.00 71 1001.9
20260504185934 11 221 0.0 11.3 0.00 0.00 0.00 69 1001.9
20260504185431 11 292 3.2 6.4 0.00 0.00 0.00 71 1002.2
20260504184927 11 135 3.2 6.4 0.00 0.00 0.00 72 1002.2
20260504184423 11 155 1.6 4.8 0.00 0.00 0.00 74 1002.2
20260504183919 10 146 3.2 11.3 0.00 0.00 0.00 73 1002.1
20260504183417 10 159 0.0 4.8 0.00 0.00 0.00 73 1002.4
20260504182915 11 257 14.5 17.7 0.00 0.00 0.00 70 1002.1
20260504182411 11 65 3.2 9.7 0.00 0.00 0.00 72 1002.0
20260504181908 11 190 12.9 16.1 0.00 0.00 0.00 68 1002.0
20260504181405 11 125 6.4 14.5 0.00 0.00 0.00 68 1002.0
20260504180904 11 97 4.8 12.9 0.00 0.00 0.00 67 1002.0
20260504180402 11 201 6.4 14.5 0.00 0.00 0.00 66 1001.8
20260504175900 11 228 8.0 16.1 0.00 0.00 0.00 65 1001.9
20260504175356 11 204 8.0 14.5 0.00 0.00 0.00 65 1001.9
20260504174855 11 188 6.4 14.5 0.00 0.00 0.00 60 1001.5
20260504174352 12 207 8.0 20.9 0.00 0.00 0.00 57 1001.8
20260504173849 12 234 6.4 14.5 0.00 0.00 0.00 55 1001.2
20260504173345 12 118 9.7 12.9 0.00 0.00 0.00 53 1001.1
20260504172842 13 181 8.0 12.9 0.00 0.00 0.00 54 1001.2
20260504172339 13 153 8.0 12.9 0.00 0.00 0.00 51 1001.0
20260504171835 13 206 6.4 9.7 0.00 0.00 0.00 51 1001.1
20260504171332 13 119 4.8 16.1 0.00 0.00 0.00 50 1001.2
20260504170830 13 198 1.6 14.5 0.00 0.00 0.00 52 1001.2
20260504170326 13 122 9.7 16.1 0.00 0.00 0.00 45 1001.3
20260504160244 13 188 9.7 24.1 0.00 0.00 0.00 54 1001.5
20260504150710 15 169 8.0 11.3 0.00 0.00 0.00 42 1002.3
20260504150207 15 295 3.2 11.3 0.00 0.00 0.00 44 1002.4
20260504141136 13 280 3.2 12.9 0.00 0.00 0.00 45 1003.2
20260504140632 13 123 3.2 14.5 0.00 0.00 0.00 47 1002.9
20260504140128 12 166 3.2 9.7 0.00 0.00 0.00 49 1003.0
20260504130556 10 262 6.4 11.3 0.00 0.00 0.00 55 1003.8
20260504110444 4 291 3.2 4.8 0.00 0.00 0.00 75 1004.0
20260504100407 2 334 1.6 4.8 0.00 0.00 0.00 81 1003.5
20260504081800 2 328 3.2 4.8 0.00 0.00 0.00 85 1002.2
20260504081256 2 142 1.6 3.2 0.00 0.00 0.00 85 1002.2
20260504080753 2 250 4.8 4.8 0.00 0.00 0.00 85 1002.2
20260504080249 2 69 0.0 0.0 0.00 0.00 0.00 85 1002.4
20260504070217 3 332 1.6 4.8 0.00 0.00 0.00 82 1001.3
20260504060137 3 332 3.2 9.7 0.00 0.00 0.00 83 1000.6
20260504050605 5 318 4.8 14.5 0.00 0.00 0.00 82 1000.1
20260504045559 5 300 6.4 11.3 0.00 0.00 0.00 85 1000.3
20260504045054 5 117 3.2 16.1 0.00 0.00 0.00 84 1000.3
20260504044552 5 291 6.4 14.5 0.00 0.00 0.00 85 1000.4
20260504044049 5 300 9.7 14.5 0.00 0.00 0.00 85 1000.3
20260504043546 5 293 6.4 11.3 0.00 0.00 0.00 85 1000.2
20260504043043 5 335 4.8 12.9 0.00 0.00 0.00 86 1000.1
20260504042540 5 315 4.8 20.9 0.00 0.00 0.00 86 999.9
20260504042037 5 321 6.4 11.3 0.00 0.00 0.00 86 999.9
20260504041533 5 329 9.7 20.9 0.00 0.00 0.00 86 999.6
20260504041029 5 316 16.1 17.7 0.00 0.00 0.00 88 999.6
20260504040527 5 336 6.4 14.5 0.00 0.00 0.00 88 999.6
20260504040023 5 19 9.7 12.9 0.00 0.00 0.00 88 999.6
20260504035520 5 332 3.2 11.3 0.00 2.67 2.67 89 999.5
20260504035016 5 319 8.0 14.5 0.00 2.67 2.67 89 999.5
20260504034514 5 354 9.7 16.1 0.00 2.67 2.67 90 999.4
20260504034011 5 28 3.2 12.9 0.00 2.67 2.67 90 999.4
20260504033509 6 343 4.8 17.7 0.00 2.67 2.67 90 999.5
20260504033006 6 318 6.4 24.1 0.00 2.67 2.67 91 999.2
20260504032503 6 328 3.2 12.9 0.00 2.67 2.67 93 999.6
20260504031959 6 4 6.4 16.1 0.00 2.67 2.67 93 999.5
20260504031456 6 289 8.0 9.7 0.00 2.67 2.67 94 999.3
20260504030953 6 353 12.9 17.7 0.00 2.67 2.67 94 999.3
20260504030450 5 336 6.4 11.3 0.00 2.67 2.67 94 999.2
20260504025946 5 344 3.2 11.3 0.00 2.67 2.67 94 999.2
20260504025443 5 252 4.8 11.3 0.00 2.67 2.67 94 999.0
20260504024940 5 269 4.8 11.3 0.00 2.67 2.67 94 999.0
20260504024437 5 328 6.4 11.3 0.00 2.67 2.67 94 998.9
20260504023934 5 340 4.8 11.3 0.00 2.67 2.67 94 999.1
20260504023430 5 293 6.4 11.3 0.00 2.67 2.67 94 998.9
20260504022926 5 1 9.7 12.9 0.00 2.67 2.67 94 998.9
20260504022423 5 336 6.4 12.9 0.00 2.67 2.67 94 998.9
20260504021920 5 319 4.8 6.4 0.00 2.67 2.67 94 998.7
20260504021417 5 288 14.5 22.5 0.00 2.67 2.67 94 998.8
20260504020914 5 342 4.8 14.5 0.00 2.67 2.67 94 998.8
20260504020410 5 12 3.2 4.8 0.00 2.67 2.67 94 998.6
20260504015907 5 319 3.2 11.3 0.00 2.67 2.67 94 998.9
20260504015403 5 325 8.0 12.9 0.00 2.67 2.67 94 998.8
20260504014859 5 302 6.4 20.9 0.00 2.67 2.67 94 998.6
20260504014355 5 3 14.5 16.1 0.00 2.67 2.67 95 998.6
20260504013853 5 359 11.3 16.1 0.00 2.67 2.67 95 998.5
20260504013351 5 299 8.0 14.5 0.13 2.67 2.67 95 998.4
20260504012847 5 324 4.8 14.5 0.13 2.67 2.67 95 998.4
20260504012345 5 356 8.0 16.1 0.00 2.64 2.64 95 998.5
20260504011842 5 326 8.0 16.1 0.00 2.64 2.64 95 998.2
20260504011338 5 353 12.9 16.1 0.00 2.64 2.64 95 998.3
20260504010835 5 347 9.7 12.9 0.00 2.64 2.64 95 998.0
20260504010330 5 38 8.0 16.1 0.00 2.64 2.64 95 998.1
20260504005827 5 335 11.3 20.9 0.00 2.64 2.64 95 998.0
20260504005324 5 296 11.3 17.7 0.00 2.64 2.64 95 997.9
20260504004821 5 344 12.9 17.7 0.00 2.64 2.64 95 997.8
20260504004319 5 276 9.7 20.9 0.00 2.64 2.64 95 997.6
20260504003815 5 300 9.7 14.5 0.00 2.64 2.64 95 997.6
20260504003312 5 357 3.2 16.1 0.00 2.64 2.64 95 997.5
20260504002809 5 305 8.0 16.1 0.00 2.64 2.64 95 997.5
20260504002306 5 101 9.7 17.7 0.00 2.64 2.64 95 997.3
20260504001803 5 310 12.9 29.0 0.00 2.64 2.64 95 997.3
20260504001300 5 329 9.7 20.9 0.00 2.64 2.64 96 997.2
20260504000757 5 332 9.7 22.5 0.00 2.64 2.64 96 997.1
20260504000254 5 332 8.0 17.7 0.00 2.64 2.64 96 997.3
20260503235752 5 115 9.7 14.5 0.00 2.64 2.64 96 997.0
20260503235249 5 339 8.0 22.5 0.00 2.64 2.64 96 997.0
20260503234747 5 331 8.0 20.9 0.00 2.64 2.64 96 996.8
20260503234245 5 334 8.0 17.7 0.00 2.64 2.64 96 996.8
20260503233741 5 318 3.2 14.5 0.00 2.64 2.64 96 996.9
20260503233237 5 323 8.0 17.7 0.00 2.64 2.64 96 996.5
20260503232734 5 14 6.4 14.5 0.00 2.64 2.64 96 996.7
20260503232232 5 359 16.1 20.9 0.00 2.64 2.64 96 996.7